Regional Weather Roundup
Issued by NWS

Home | Current Version | Previous Version | Graphics & Text | Print | Product List | Glossary On
Versions: 1 2 3 4 5 6 7 8 9 10 11 12 13 14 15 16 17 18 19 20 21 22 23 24 25 26 27 28 29 30 31 32 33 34 35 36 37 38 39 40 41 42 43 44 45 46 47 48 49 50
000
ASUS43 KFSD 271402
RWRSD

WEATHER ROUNDUP FOR SOUTH DAKOTA
NATIONAL WEATHER SERVICE SIOUX FALLS SD
800 AM CST THU NOV 27 2014

NOTE: "FAIR" INDICATES FEW OR NO CLOUDS BELOW 12,000 FEET WITH NO
SIGNIFICANT WEATHER AND/OR OBSTRUCTIONS TO VISIBILITY.


SDZ001>005-009-010-012>017-271500-
NORTHWEST AND NORTH CENTRAL SOUTH DAKOTA

CITY           SKY/WX    TMP DP  RH WIND       PRES   REMARKS
BUFFALO          N/A     19  15  84 SE15      30.04F WCI   5
FAITH            N/A     14  10  84 SE14      30.19S WCI  -1
MOBRIDGE       MOCLDY     3  -3  76 SE13      30.31F WCI -14
$$

SDZ012>016-024>037-041>051-057-063-072>074-271500-
SOUTHWEST AND SOUTH CENTRAL SOUTH DAKOTA

CITY           SKY/WX    TMP DP  RH WIND       PRES   REMARKS
RAPID CTY ARPT CLOUDY    19  17  92 SE12      30.11F WCI   7
PIERRE         CLOUDY    12   8  84 SE14      30.32F WCI  -3
CUSTER         PTCLDY    28  22  78 W8        30.05S WCI  20
ELLSWORTH AFB  CLOUDY    20  18  93 S10       30.10F WCI   8
PHILIP         PTCLDY    17  11  77 E13       30.22F WCI   4
PINE RIDGE     PTCLDY    25  22  88 S8        30.13F WCI  16
WINNER         CLOUDY    18   9  68 SE16      30.31F WCI   3
$$

SDZ004>011-016>023-039-040-271500-
NORTHEAST SOUTH DAKOTA

CITY           SKY/WX    TMP DP  RH WIND       PRES   REMARKS
ABERDEEN       PTCLDY   -13 -19  75 CALM      30.47R
WATERTOWN      PTCLDY   -12 -17  78 CALM      30.41F
SISSETON         N/A    -13 -18  78 CALM      30.49F
$$

SDZ017-020-022-023-036>040-048>070-271500-
SOUTHEAST SOUTH DAKOTA

CITY           SKY/WX    TMP DP  RH WIND       PRES   REMARKS
SIOUX FALLS    MOCLDY    -5 -11  75 NE6       30.47S WCI -18
HURON          MOCLDY    -4  -8  83 SE5       30.47R WCI -15
CHAMBERLAIN    CLOUDY    10   2  70 SE10      30.38S WCI  -3
MITCHELL       MOCLDY     1  -6  72 SE6       30.49R WCI -10
YANKTON        CLOUDY     7  -2  66 E5        30.50R WCI  -2
$$

ABBREVIATIONS USED IN REMARKS
   TC - TEMPERATURE IN CELSIUS
  WCI - WIND CHILL INDEX
   HX - HEAT INDEX
  VSB - VISIBILITY




USA.gov is the U.S. government's official web portal to all federal, state and local government web resources and services.